Weather History for KLWT - September, 2013

Change the Weather History Date:

Tuesday, September 24, 2013

  Actual Average Record
Temperature  
Mean Temperature 49 °F 52 °F  
Max Temperature 61 °F 65 °F 89 °F (1938)
Min Temperature 36 °F 38 °F 6 °F (1926)
Degree Days  
Heating Degree Days 16 14  
Month to date heating degree days 110 230  
Since 1 July heating degree days 149 388  
Cooling Degree Days 0 0  
Month to date cooling degree days 47 13  
Year to date cooling degree days 277 209  
Moisture  
Dew Point 40 °F    
Average Humidity 68    
Maximum Humidity 93    
Minimum Humidity 42    
Precipitation  
Precipitation 0.15 in 0.05 in 0.70 in (1903)
Month to date precipitation 1.61 1.10  
Year to date precipitation 19.67 14.10  
Snow  
Snow 0.00 in - - ()
Snow Depth 0.00 in    
Sea Level Pressure  
Sea Level Pressure 29.81 in    
Wind  
Wind Speed 6 mph (NW)    
Max Wind Speed 20 mph    
Max Gust Speed 26 mph    
Visibility 10 miles    
Events Rain    
T = Trace of Precipitation, MM = Missing Value Source: NWS Daily Summary

Daily Weather History Graph

Daily Weather History Graph

Search for Another Location

Airport or City:

Trip Planner

Search our weather history database for the weather conditions in past years. The results will help you decide how hot, cold, wet, or windy it might be!

Date:

Astronomy

Sep. 24, 2013 Rise Set
Actual Time 7:07 AM MDT 7:10 PM MDT
Civil Twilight 6:37 AM MDT 7:41 PM MDT
Nautical Twilight 6:01 AM MDT 8:16 PM MDT
Astronomical Twilight 5:24 AM MDT 8:53 PM MDT
Moon 10:11 PM MDT (9/24) 12:45 PM MDT (9/24)
Length of Visible Light 13h 03m
Length of Day
12h 03m
Waning Gibbous, 72% of the Moon is Illuminated
Sep 24
Waning Gibbous
Sep 26
Last Quarter
Oct 4
New
Oct 11
First Quarter
Oct 18
Full

Hourly Weather History & Observations

Time (MDT) Temp. Windchill Dew Point Humidity Pressure Visibility Wind Dir Wind Speed Gust Speed Precip Events Conditions
12:54 AM 42.1 °F 38.4 °F 33.1 °F 70% 29.91 in 10.0 mi SSE 5.8 mph - N/A   Clear
1:54 AM 37.0 °F 33.3 °F 32.0 °F 82% 29.93 in 10.0 mi SE 4.6 mph - N/A   Clear
2:54 AM 36.0 °F 32.1 °F 32.0 °F 86% 29.93 in 10.0 mi SE 4.6 mph - N/A   Clear
3:54 AM 37.0 °F 31.6 °F 32.0 °F 82% 29.93 in 10.0 mi SE 6.9 mph - N/A   Clear
4:54 AM 43.0 °F 37.2 °F 34.0 °F 71% 29.91 in 10.0 mi SSW 10.4 mph - N/A   Clear
5:54 AM 37.0 °F 31.6 °F 32.0 °F 82% 29.93 in 10.0 mi ESE 6.9 mph - N/A   Clear
6:54 AM 42.1 °F 37.7 °F 33.1 °F 70% 29.93 in 10.0 mi SE 6.9 mph - N/A   Mostly Cloudy
7:54 AM 42.1 °F 37.7 °F 34.0 °F 73% 29.94 in 10.0 mi ESE 6.9 mph - N/A   Clear
8:54 AM 51.1 °F - 35.1 °F 54% 29.91 in 10.0 mi ESE 8.1 mph - N/A   Clear
9:54 AM 57.9 °F - 37.0 °F 46% 29.87 in 10.0 mi Calm Calm - N/A   Clear
10:54 AM 59.0 °F - 39.0 °F 48% 29.85 in 10.0 mi NNE 4.6 mph - N/A   Overcast
11:54 AM 59.0 °F - 41.0 °F 51% 29.84 in 10.0 mi WNW 4.6 mph - N/A   Overcast
12:54 PM 57.9 °F - 37.9 °F 47% 29.82 in 10.0 mi WNW 4.6 mph - 0.00 in   Overcast
1:54 PM 60.1 °F - 37.9 °F 44% 29.79 in 10.0 mi North 4.6 mph - N/A   Overcast
2:54 PM 61.0 °F - 37.0 °F 41% 29.75 in 10.0 mi North - - 0.00 in   Overcast
3:54 PM 60.1 °F - 41.0 °F 49% 29.74 in 10.0 mi NNE 4.6 mph - N/A   Overcast
4:54 PM 57.0 °F - 43.0 °F 59% 29.73 in 10.0 mi NNW 3.5 mph - N/A   Overcast
5:54 PM 50.0 °F - 46.9 °F 89% 29.75 in 8.0 mi WNW 6.9 mph - 0.02 in Rain Light Rain
6:54 PM 50.0 °F - 46.9 °F 89% 29.71 in 10.0 mi North 3.5 mph - 0.01 in Rain Light Rain
7:54 PM 48.9 °F - 46.9 °F 93% 29.71 in 10.0 mi WNW 6.9 mph - 0.01 in Rain Light Rain
8:54 PM 48.0 °F - 46.9 °F 96% 29.68 in 10.0 mi Calm Calm - 0.02 in   Mostly Cloudy
9:21 PM 48.2 °F - 46.4 °F 93% 29.72 in 10.0 mi WNW 9.2 mph - N/A   Scattered Clouds
9:34 PM 48.2 °F - 46.4 °F 93% 29.73 in 10.0 mi NW 9.2 mph - N/A   Mostly Cloudy
9:54 PM 48.0 °F - 46.9 °F 96% 29.71 in 10.0 mi West 11.5 mph - N/A   Overcast
10:29 PM 46.4 °F 40.7 °F 44.6 °F 93% 29.77 in 7.0 mi West 12.7 mph - 0.07 in Rain Light Rain
10:34 PM 44.6 °F 37.8 °F 44.6 °F 100% 29.78 in 10.0 mi West 15.0 mph 21.9 mph 0.07 in Rain Light Rain
10:54 PM 45.0 °F 40.1 °F 44.1 °F 97% 29.69 in 9.0 mi NNE 9.2 mph - 0.09 in Rain Light Rain
11:36 PM 44.6 °F 39.7 °F 42.8 °F 93% 29.72 in 10.0 mi WSW 9.2 mph - 0.00 in   Mostly Cloudy
11:54 PM 45.0 °F 38.5 °F 44.1 °F 97% 29.71 in 10.0 mi West 13.8 mph - 0.00 in   Overcast